MDT,Max TemperatureF,Mean TemperatureF,Min TemperatureF,Max Dew PointF,MeanDew PointF,Min DewpointF,Max Humidity, Mean Humidity, Min Humidity, Max Sea Level PressureIn, Mean Sea Level PressureIn, Min Sea Level PressureIn, Max VisibilityMiles, Mean VisibilityMiles, Min VisibilityMiles, Max Wind SpeedMPH, Mean Wind SpeedMPH, Max Gust SpeedMPH,PrecipitationIn, CloudCover, Events, WindDirDegrees
2014-4-1,29,25,21,26,22,19,96,90,84,30.03,29.92,29.83,10,6,0,13,6,14,0.00,8,Fog,34
2014-4-2,34,30,26,30,27,24,92,87,82,29.98,29.85,29.75,10,8,1,17,9,20,0.06,8,Fog-Snow,45
2014-4-3,47,37,27,33,28,25,92,73,53,30.10,30.06,29.98,10,10,8,17,9,20,0.00,2,Snow,204
2014-4-4,57,44,31,26,23,19,78,51,24,30.03,29.87,29.78,10,10,10,26,11,33,0.00,2,,222
2014-4-5,56,47,38,33,28,22,76,52,27,29.91,29.86,29.80,10,10,10,20,9,24,T,6,,263
2014-4-6,57,47,36,34,28,24,65,52,38,30.08,29.92,29.86,10,10,10,36,16,45,T,4,,285
2014-4-7,61,47,33,32,30,24,82,56,29,30.22,30.14,30.07,10,10,10,24,12,30,T,4,,291
2014-4-8,74,57,39,33,30,24,0,0,0,30.11,29.98,29.82,10,10,10,31,15,41,0.00,4,,241
2014-4-9,73,59,44,36,31,28,89,56,22,29.92,29.78,29.67,10,10,10,37,13,45,0.00,5,,239
2014-4-10,64,50,35,31,23,13,70,42,14,30.00,29.94,29.86,10,10,10,32,12,39,0.00,3,,252
2014-4-11,72,54,36,31,25,20,54,36,18,29.94,29.79,29.63,10,10,10,29,9,35,0.00,4,,264
2014-4-12,52,40,28,34,29,23,78,60,41,30.21,29.95,29.78,10,9,3,26,14,33,0.01,7,Snow,33
2014-4-13,40,33,26,20,15,11,69,52,35,30.41,30.35,30.23,10,10,3,17,9,22,T,6,Snow,2
2014-4-14,53,39,25,18,16,14,68,46,24,30.40,30.16,29.90,10,10,10,28,18,32,0.00,2,,235
2014-4-15,59,50,40,36,24,15,70,47,24,29.87,29.73,29.63,10,10,10,35,20,40,T,7,Rain,270
2014-4-16,46,40,34,34,31,27,82,68,53,30.12,30.01,29.81,10,10,9,28,11,32,0.02,6,Rain-Snow,29
2014-4-17,64,48,32,34,30,24,89,56,23,30.09,29.92,29.73,10,10,10,17,5,24,0.00,5,,99
2014-4-18,62,52,41,39,31,12,66,47,27,29.88,29.71,29.62,10,10,8,33,12,40,0.17,5,Rain-Thunderstorm,302
2014-4-19,66,51,35,28,19,13,44,30,16,30.03,29.92,29.83,10,10,10,14,6,20,0.00,2,,194
2014-4-20,66,55,43,30,21,12,46,29,12,30.19,30.00,29.80,10,10,10,29,13,36,0.00,3,,308
2014-4-21,68,52,35,28,23,16,59,37,14,30.26,30.12,29.89,10,10,10,13,8,13,0.00,3,,162
2014-4-22,73,60,47,42,34,26,57,41,24,29.88,29.57,29.28,10,10,10,36,9,42,0.00,6,,109
2014-4-23,56,49,41,42,25,16,71,46,20,29.83,29.64,29.32,10,10,10,38,21,47,T,5,Rain,285
2014-4-24,61,50,38,35,27,22,61,42,23,29.88,29.80,29.74,10,10,10,28,11,35,T,5,,260
2014-4-25,66,52,38,35,34,31,79,55,30,29.81,29.69,29.51,10,10,10,21,9,24,T,5,,93
2014-4-26,63,50,37,44,41,35,92,70,48,29.53,29.44,29.37,10,9,5,28,11,34,0.81,7,Rain,9
2014-4-27,57,47,36,35,30,23,92,60,27,29.69,29.64,29.56,10,10,7,25,14,32,0.11,6,Rain,320
2014-4-28,57,48,38,32,27,21,76,51,26,30.24,29.94,29.68,10,10,10,36,21,47,T,5,,312
2014-4-29,53,46,38,34,28,23,64,53,41,30.50,30.41,30.25,10,10,10,36,17,45,T,6,,344
2014-4-30,61,49,37,27,23,19,59,40,20,30.51,30.43,30.34,10,10,10,29,15,35,0.00,2,,339